Location: Fort Wayne
(41.1310°N, 85.1290°W)
Time: 06:53:07
(UTC-04:00)

Cosmos 2219 Rocket - Visible Passes

Search period start: 03 September 2015 00:00
Search period end: 13 September 2015 00:00
Orbit: 828 x 847 km, 71.0° (Epoch: 02 September)

Date Brightness Start Highest point End Pass type
(mag) Time Alt. Az. Time Alt. Az. Time Alt. Az.
03 Sep 4.4 02:36:46 18° ENE 02:36:46 18° ENE 02:38:34 10° NE visible
03 Sep 3.0 04:18:30 39° NW 04:18:30 39° NW 04:22:57 10° N visible
04 Sep 4.6 02:20:59 15° ENE 02:20:59 15° ENE 02:22:09 10° NE visible
04 Sep 3.2 04:02:43 37° NNW 04:02:43 37° NNW 04:06:41 10° NNE visible
05 Sep 4.8 02:05:10 12° NE 02:05:10 12° NE 02:05:43 10° NE visible
05 Sep 3.5 03:46:54 34° N 03:46:54 34° N 03:50:25 10° NNE visible
06 Sep 3.7 03:31:04 31° N 03:31:04 31° N 03:34:08 10° NNE visible
07 Sep 3.9 03:15:12 27° N 03:15:12 27° N 03:17:51 10° NNE visible
07 Sep 4.5 04:57:16 10° NW 04:57:39 10° NW 04:57:44 10° NW visible
08 Sep 4.2 02:59:19 24° N 02:59:19 24° N 03:01:33 10° NNE visible
08 Sep 4.5 04:41:03 11° NW 04:41:15 11° NW 04:42:27 10° NNW visible
09 Sep 4.4 02:43:25 21° NNE 02:43:25 21° NNE 02:45:16 10° NNE visible
09 Sep 4.5 04:25:08 11° NW 04:25:08 11° NW 04:26:36 10° NNW visible
10 Sep 4.6 02:27:29 19° NNE 02:27:29 19° NNE 02:28:58 10° NNE visible
10 Sep 4.5 04:09:13 12° NW 04:09:13 12° NW 04:10:37 10° NNW visible
11 Sep 4.7 02:11:33 16° NNE 02:11:33 16° NNE 02:12:40 10° NNE visible
11 Sep 4.6 03:53:17 12° NNW 03:53:17 12° NNW 03:54:33 10° NNW visible
12 Sep 4.8 01:55:36 14° NNE 01:55:36 14° NNE 01:56:21 10° NNE visible
12 Sep 4.7 03:37:19 12° NNW 03:37:19 12° NNW 03:38:27 10° NNW visible
